Regional Weather Roundup
Issued by NWS

Home | Current Version | Previous Version | Text Only | Print | Product List | Glossary On
Versions: 1 2 3 4 5 6 7 8 9 10 11 12 13 14 15 16 17 18 19 20 21 22 23 24 25 26 27 28 29 30 31 32 33 34 35 36 37 38 39 40 41 42 43 44 45 46 47 48 49 50
000
ASHW40 PHFO 231543
RWRHI

WEATHER ROUNDUP FOR HAWAII
NATIONAL WEATHER SERVICE HONOLULU HI
500 AM HST FRI JUN 23 2017

THIS IS AN AUTOMATED REPORT THAT HAS NOT BEEN QUALITY CONTROLLED.

NOTE..."FAIR" INDICATES FEW OR NO CLOUDS BELOW 12,000 FEET WITH NO
SIGNIFICANT WEATHER AND/OR OBSTRUCTIONS TO VISIBILITY.

* - THESE SITES REPORT LIMITED FIELDS

HIZ001>004-231600-
KAUAI-NIIHAU-

CITY           SKY/WX    TMP DP  RH WIND       PRES   REMARKS
LIHUE APT      MOCLDY    75  70  84 N5        29.96S
PORT ALLEN*    NOT AVBL
POIPU*           N/A     73 N/A N/A N3          N/A
PRINCEVILLE*     N/A     72 N/A N/A S2          N/A
KOKOLE POINT*  NOT AVBL
MOLOAA DAIRY*    N/A     73  70  88 NE2         N/A
WAIMEA HTS*      N/A     72  64  78 VRB1        N/A
PUU OPAE*      NOT AVBL
PUU LUA*       NOT AVBL
MAKAHA RIDGE*    N/A     70  59  68 E1G7        N/A
$$

HIZ005>011-231600-
OAHU-

CITY           SKY/WX    TMP DP  RH WIND       PRES   REMARKS
HONOLULU       PTCLDY    75  66  73 NE9       29.93S
KALAELOA       PTCLDY    73  65  75 CALM      29.94S
KANEOHE MCB    PTCLDY    78  69  73 E8        29.91
WHEELER FIELD  FAIR      67  66  95 W5        29.94R
BELLOWS*         N/A    N/A N/A N/A NE14        N/A
KAHUKU*          N/A    N/A N/A N/A E6          N/A
WHEELER*         N/A    N/A N/A N/A N3          N/A
WAIANAE HARBOR   N/A    N/A N/A N/A E5          N/A
DILLINGHAM*      N/A     68  66  94 NW1         N/A
KAHUKU TRN*      N/A     70  66  88 W3G12       N/A
KAWAILOA*        N/A     70  64  83 E7G14       N/A
KII*             N/A     77  70  78 E13         N/A
MAKUA RANGE*     N/A     75  72  88 W5          N/A
OAHU FOREST NW   N/A     70  64  83 NE14G22     N/A
SCHOFIELD BRK*   N/A     70  68  94 MISG        N/A
SCHOFIELD S*   NOT AVBL
WAIANAE VLY*     N/A     90  79  70 SE3G14      N/A  HX 105
KUAOKALA*        N/A     72  66  83 NE7         N/A
HONOULIUULI*   NOT AVBL
MOKUOLOE IS*   NOT AVBL
PALEHUA*         N/A     64  63  94 NE9G16      N/A
WAIAWA PHB*    NOT AVBL
$$

HIZ012>013-231600-
MOLOKAI-

CITY           SKY/WX    TMP DP  RH WIND       PRES   REMARKS
MOLOKAI AIRPT  PTCLDY    74  67  78 N6        29.93S
KALAUPAPA      NOT AVBL
MAKAPULAPAI*     N/A     75  68  78 E15G22      N/A
MOLOKAI 1*       N/A     75  68  78 NE3G12      N/A
PUU ALII*        N/A     58  58  99 NE2G10      N/A
$$

HIZ016-231600-
KAHOOLAWE-

CITY           SKY/WX    TMP DP  RH WIND       PRES   REMARKS
KAHOOLAWE*     NOT AVBL
HAKIOAWA*        N/A     69  66  89 MISG      30.34S
HONOKANAIA*      N/A     76  65  67 NE9G17    29.85S
KANELOA*         N/A     72  64  78 NE9G18    29.98S
KEALIALALO*    NOT AVBL
LUA MAKIKA*    NOT AVBL
$$

HIZ014>015-231600-
LANAI-

CITY           SKY/WX    TMP DP  RH WIND       PRES   REMARKS
LANAI CITY     FAIR      66  61  84 E7        29.97S
LANAI 1*         N/A     70  66  88 NE15G21     N/A
$$

HIZ017>028-231600-
MAUI-

CITY           SKY/WX    TMP DP  RH WIND       PRES   REMARKS
KAHULUI        PTCLDY    74  65  73 NE7       29.92R
KAPALUA-W MAUI NOT AVBL
HANA AIRPORT   LGT RAIN  72  68  88 S2        29.97R
HANA*            N/A     72 N/A N/A S3          N/A
HALEAKALA SUMM   N/A     46   3  17 E5G29       N/A
MAALAEA BAY*     N/A     75 N/A N/A N12G18      N/A
HALEAKALA*     NOT AVBL
KAUPO GAP*     NOT AVBL
KULA 1*          N/A     46  43  87 E5          N/A
$$

HIZ023>026-231600-
BIG ISLAND OF HAWAII COAST AND LOWER SLOPES-

CITY           SKY/WX    TMP DP  RH WIND       PRES   REMARKS
KAILUA KONA    CLEAR     74  63  68 E6        29.88S
HILO           RAIN      70  68  94 NE7       29.94R FOG
HONOKAA*         N/A     64 N/A N/A VRB1        N/A
KAWAIHAE MWT*    N/A     75 N/A N/A NE7         N/A
KAWAIHAE*        N/A     75 N/A N/A NE5       29.90R
SOUTH POINT*     N/A     66 N/A N/A NW9         N/A
UPOLU AIRPORT* NOT AVBL
KAMUELA*       CLOUDY    64  61  88 NE13      30.02R
HAKALAU*         N/A     51  51  98 S2          N/A
KALOKO-HONOKO*   N/A     72  64  78 NE5G10    29.88S
PALI 2*          N/A     64  57  77 S2G8        N/A
KEALAKOMO*       N/A     77  63  61 N8G21       N/A
KAUPULEHU*       N/A     66  59  77 SE5G12      N/A
KAPAPALA*        N/A     62  62  99 NW5         N/A
LOWER KAHUKU*    N/A     57  55  94 VRB3        N/A
PUHE CS*         N/A     75  64  69 NE2         N/A
PUHO CS*         N/A     71  66  83 E2          N/A
PTA KEAMUKU*   NOT AVBL
WAIKOLOA*        N/A     70  59  68 E8G18       N/A
$$

HIZ027>028-231600-
BIG ISLAND OF HAWAII INTERIOR AND SUMMMITS-

CITY           SKY/WX    TMP DP  RH WIND       PRES   REMARKS
BRADSHAW FIELD CLOUDY    45  42  88 SE5       30.22S
MK VISITOR CEN   N/A     46  -2  13 N3          N/A
MAUNA KEA*       N/A     45  -9  10 CALM        N/A
MAUNA LOA*       N/A     45  -6  12 MISG        N/A
MAUNA LOA 1*   NOT AVBL
PTA KIPUKA*      N/A     70  70 100 E3          N/A
PTA RANGE 17*    N/A     70  63  78 E7          N/A
PTA WEST*        N/A     55  52  88 E8          N/A
NENE CABIN*      N/A     50  50 100 NE3G9       N/A
AHUMOA*          N/A     46  45  93 E7          N/A
PTA PORTABLE*  NOT AVBL
PUU MALI*        N/A     52  48  87 S3          N/A
$$

HIC003-231600-
NORTHWEST ISLANDS-

CITY           SKY/WX    TMP DP  RH WIND       PRES   REMARKS
MIDWAY ISLAND  CLEAR     73  66  78 E13       30.09F
MIDWAY NOS*      N/A     75 N/A N/A MISG      30.07S
FRENCH FRIGATE NOT AVBL
$$

PHZ110>124-180-231600-
BUOY REPORTS

STATION/POSITION TIME  TEMP    WIND        PRES    WAVE   SWELL
                       AIR SEA DIR/SP/G            HT/PER HT/DIR
                 (UTC) (F)     (DEG/KT/KT) (MB)    (FT/S) (FT/D)
BUOY 51001       1520   78 80   90/ 14/ 17 1015.5
BUOY 51101       1450   78 80   80/ 14/ 17 1015.7    5/14   3/130
BUOY 51100       NOT AVBL
BUOY 51002       1520   77 79   70/ 12/ 14 1011.9
BUOY 51003       1450   79 81   40/ 10/ 12 1012.5    5/15   5/110
BUOY 51004       1450      79  100/ 12/ 14 1012.3R   6/16   5/160
BARBERS PT BUOY  NOT AVBL
WAIMEA BAY BUOY  1502      79                N/A     3/ 8
KAILUA BAY BUOY  1504      80                N/A     5/ 8   2/140
LANAI BUOY       NOT AVBL
BARBERS PT 2     NOT AVBL
PAUWELA MAUI     1509      78                N/A     5/ 8   2/ 60
HILO             1527      78                N/A     5/ 8   2/130
KANEOHE BAY BUOY 1525      80                N/A     5/ 8
HANALEI KAUAI    1522      80                N/A     4/ 8
KAHULUI HARBOR   1512   76 80  340/ 11/ 13 1013.2
HONOLULU HARBOR  1512   76 80  360/  1/  3 1014.2
KILO NALU        NOT AVBL
HILO HARBOR      1512   72 78   50/  8/ 13 1013.2
MOKUOLOE         1436   78 82   80/  6/  9 1013.6S
NAWILIWILI       1512   73 82  240/  4/  5 1014.1
WHOTS BUOY       NOT AVBL
BUOY 51028       NOT AVBL
$$

......................KEY........................................
  SKY/WX - SKY CONDITIONS/PRESENT WEATHER
  TMP    - TEMPERATURE IN FAHRENHEIT
  DWPT   - DEWPOINT IN FAHRENHEIT
  RH     - RELATIVE HUMIDITY IN PERCENT
  WIND   - DIRECTION AND SPEED /MPH FOR ISLANDS...KTS FOR BUOYS/
  PRES   - MEAN SEA LEVEL PRESSURE IN INCHES OF HG
  VSB    - VISIBILITY IN MILES
  HX     - HEAT INDEX
  WCI    - WIND CHILL INDEX
  VRB    - VARIABLE WIND DIRECTION
  N/A    - NOT AVAILABLE



USA.gov is the U.S. government's official web portal to all federal, state and local government web resources and services.